Simultaneous Nadir Overpasses (SNOs) Predictions

Prediction of SNOs between GOES-15 and NPP Satellite Orbit:

Table of predicted SNOs for the next 14.0 days since TLE Epoch: 7/16/2022
Index Date Time (GOES-15) GOES-15 Lat,Lon NPP Lat,Lon Distance(km) Time Diff (sec)
1 07/16/2022 09:43:25 -0.21,-128.37 -1.13,-124.35 458.44 80
2 07/17/2022 22:02:42 0.24,-128.34 -0.09,-129.66 150.29 80
3 07/18/2022 21:46:39 0.22,-128.33 0.94,-125.13 364.84 80
4 07/20/2022 10:05:48 -0.26,-128.32 0.22,-130.41 238.48 80
5 07/21/2022 09:49:44 -0.24,-128.30 -0.81,-125.88 276.02 80
6 07/22/2022 22:09:02 0.28,-128.26 -0.40,-131.19 334.05 80
7 07/23/2022 21:52:58 0.27,-128.25 0.63,-126.66 180.38 80
8 07/25/2022 10:12:08 -0.30,-128.23 0.54,-131.94 423.31 80
9 07/26/2022 09:56:04 -0.29,-128.20 -0.50,-127.42 90.49 80
10 07/28/2022 21:56:37 0.31,-128.13 0.27,-128.19 7.70 80
